Location: Pilipovskiye Korichintsy
(49.1833°N, 27.4667°E)
Time: 22:16:52
(UTC+00:00)

Meteor 1-28 Rocket - Pass Details

Date: 14 July 2020
Orbit: 505 x 522 km, 97.3° (Epoch: 10 August)

Event Time Altitude Azimuth Distance (km) Brightness Sun altitude
Exits shadow 00:56:17 - 164° (SSE) 2,325 6.2 -10.7°
Reaches altitude 10° 00:57:42 10° 164° (SSE) 1,720 5.5 -10.6°
Maximum altitude 01:01:25 86° 78° (ENE) 518 3.2 -10.2°
Drops below altitude 10° 01:05:11 10° 348° (NNW) 1,744 6.4 -9.8°
Sets 01:07:17 0° 348° (NNW) 2,638 7.4 -9.6°
